Location: Unspecified
(0.0000°N, 0.0000°E)
Time: 22:38:31
(UTC+00:00)

ISS - Pass Details

Date: 19 July 2019
Orbit: 409 x 418 km, 51.6° (Epoch: 22 July)

Event Time Altitude Azimuth Distance (km) Brightness Sun altitude
Rises 05:13:15 0° 337° (NNW) 2,316 0.0 -12.4°
Reaches altitude 10° 05:15:26 10° 347° (NNW) 1,460 -0.9 -11.9°
Maximum altitude 05:18:27 35° 55° (NE) 679 -2.0 -11.2°
Drops below altitude 10° 05:21:30 10° 122° (ESE) 1,468 -0.5 -10.5°
Sets 05:23:41 0° 131° (SE) 2,332 0.4 -9.9°
